This demonstration page uses our WeatherBlox Daily Observations layout. Learn more.

Left ArrowRight Arrow

44.8408, -93.29828

Hourly Observations for September 28, 2016

Temp ( °F °C ) Dew Point ( °F °C ) Humidity (%) Winds ( mph kmh ) Pressure ( in mb ) Visibility ( mi km ) Precip ( " mm )
12:53 am 00:53 Cloudy 50 10 45 7.2 83 83 N 12 19 29.92 1013 10 16 0.00 0.00
1:53 am 01:53 Cloudy 50 10 45 7.2 83 83 N 10 17 29.94 1014 10 16 0.00 0.00
2:53 am 02:53 Cloudy 51 10.6 45 7.2 80 80 N 14 22 29.96 1014 10 16 0.00 0.00
3:12 am 03:12 Cloudy 50 10 45 7 82 82 N 12 19 29.97 1015 10 16 0.00 0.00
3:53 am 03:53 Cloudy 51 10.6 46 7.8 83 83 N 13 20 29.98 1015 10 16 0.00 0.00
4:53 am 04:53 Cloudy 51 10.6 46 7.8 83 83 N 12 19 30.00 1016 10 16 0.00 0.00
5:53 am 05:53 Cloudy 51 10.6 46 7.8 83 83 NNW 9 15 30.03 1017 10 16 0.00 0.00
6:53 am 06:53 Cloudy 51 10.6 47 8.3 86 86 N 8 13 30.06 1018 10 16 0.00 0.00
7:12 am 07:12 Cloudy 52 11 46 8 82 82 N 13 20 30.06 1018 10 16 0.00 0.00
7:53 am 07:53 Cloudy 52 11.1 47 8.3 83 83 N 12 19 30.09 1019 10 16 0.00 0.00
8:53 am 08:53 Mostly Cloudy 55 12.8 48 8.9 77 77 N 13 20 30.10 1019 10 16 0.00 0.00
9:06 am 09:06 Mostly Cloudy 55 13 48 9 77 77 N 10 17 30.09 1019 10 16 0.00 0.00
9:53 am 09:53 Mostly Cloudy 56 13.3 48 8.9 75 75 N 13 20 30.13 1020 10 16 0.00 0.00
10:53 am 10:53 Mostly Cloudy 58 14.4 48 8.9 70 70 N 13 20 30.15 1021 10 16 0.00 0.00
11:53 am 11:53 Cloudy 58 14.4 49 9.4 72 72 N 12 19 30.17 1022 10 16 0.00 0.00
12:53 pm 12:53 Cloudy 59 15 49 9.4 69 69 NNE 12 19 30.19 1022 10 16 0.00 0.00
1:03 pm 13:03 Cloudy 59 15 48 9 68 68 N 14 22 30.18 1022 10 16 0.00 0.00
1:43 pm 13:43 Cloudy 60 15.6 49 9.4 67 67 N 14 22 30.18 1022 10 16 0.00 0.00
1:53 pm 13:53 Cloudy 61 16.1 49 9.4 65 65 N 12 19 30.20 1023 10 16 0.00 0.00
2:53 pm 14:53 Cloudy 61 16.1 49 9.4 65 65 N 12 19 30.22 1023 10 16 0.00 0.00
3:53 pm 15:53 Cloudy 61 16.1 49 9.4 65 65 N 16 26 30.23 1024 10 16 0.00 0.00
4:53 pm 16:53 Cloudy 61 16.1 49 9.4 65 65 N 14 22 30.26 1025 10 16 0.00 0.00
5:53 pm 17:53 Cloudy 60 15.6 48 8.9 65 65 NNE 16 26 30.28 1026 10 16 0.00 0.00
6:53 pm 18:53 Cloudy 59 15 48 8.9 67 67 N 13 20 30.30 1026 10 16 0.00 0.00
7:53 pm 19:53 Mostly Cloudy 59 15 48 8.9 67 67 N 8 13 30.32 1027 10 16 0.00 0.00
8:53 pm 20:53 Mostly Clear 56 13.3 48 8.9 75 75 N 10 17 30.34 1027 10 16 0.00 0.00
9:53 pm 21:53 Clear 55 12.8 48 8.9 77 77 N 9 15 30.35 1028 10 16 0.00 0.00
10:53 pm 22:53 Clear 54 12.2 48 8.9 80 80 N 7 11 30.37 1028 10 16 0.00 0.00
11:53 pm 23:53 Clear 52 11.1 48 8.9 86 86 NNE 6 9 30.38 1029 10 16 0.00 0.00

Powered by AerisWeather